GEFSMA_prec_meanprecacc_198.txt.gz
Total_Precipitation_Accumulation
1.50 1.49 1.52 1.69 1.70 1.77 1.76 1.50 1.27 1.34 1.42 1.36 1.18 1.16 1.24 1.25 1.26 1.41 1.56 1.48 1.44 1.57 1.78 1.89 1.94 1.88 1.83 1.85 1.84 1.86 1.82 1.74 1.66 1.56 1.38 1.24 1.17 1.13 1.11 1.10 1.09 1.03 1.02
1.71 1.75 1.77 1.83 1.84 2.00 2.02 1.77 1.60 1.70 1.67 1.61 1.41 1.31 1.30 1.39 1.39 1.48 1.55 1.52 1.37 1.33 1.51 1.80 1.99 2.05 2.07 2.09 2.00 1.90 1.87 1.82 1.79 1.67 1.52 1.38 1.30 1.23 1.16 1.15 1.16 1.13 1.05
2.03 2.13 2.19 2.12 2.06 2.03 2.07 2.00 1.89 1.87 1.83 1.65 1.53 1.51 1.52 1.41 1.36 1.51 1.63 1.66 1.57 1.48 1.55 1.62 1.75 1.94 2.22 2.34 2.24 2.12 2.03 1.98 1.88 1.79 1.70 1.56 1.43 1.36 1.28 1.24 1.22 1.18 1.12
2.21 2.44 2.50 2.31 2.17 2.09 2.19 2.27 2.17 2.15 2.11 2.01 1.75 1.56 1.59 1.58 1.48 1.52 1.55 1.63 1.76 1.68 1.68 1.61 1.62 1.75 1.96 2.12 2.24 2.27 2.24 2.17 2.08 1.96 1.87 1.76 1.67 1.51 1.38 1.33 1.28 1.23 1.20
2.25 2.46 2.59 2.57 2.33 2.30 2.39 2.32 2.49 2.39 2.37 2.18 1.85 1.66 1.52 1.42 1.47 1.48 1.49 1.55 1.59 1.60 1.65 1.67 1.69 1.73 1.87 1.97 2.06 2.15 2.17 2.18 2.11 1.98 1.94 1.92 1.80 1.63 1.50 1.45 1.38 1.32 1.28
2.38 2.59 2.67 2.72 2.59 2.63 2.72 2.69 2.69 2.52 2.31 2.16 1.90 1.73 1.50 1.29 1.29 1.36 1.36 1.36 1.33 1.35 1.42 1.49 1.61 1.60 1.68 1.76 1.89 2.11 2.36 2.41 2.27 2.10 2.03 1.96 1.85 1.67 1.54 1.53 1.49 1.42 1.38
3.04 3.18 3.13 3.06 2.87 2.82 2.84 2.76 2.63 2.54 2.40 2.35 2.23 1.94 1.58 1.28 1.16 1.13 1.19 1.22 1.18 1.20 1.26 1.36 1.42 1.45 1.49 1.52 1.60 1.82 2.18 2.43 2.39 2.26 2.15 2.04 1.95 1.85 1.75 1.67 1.63 1.58 1.51
3.67 3.62 3.55 3.29 3.05 2.88 2.74 2.61 2.50 2.39 2.26 2.23 2.23 2.17 1.85 1.55 1.24 1.02 1.11 1.15 1.15 1.21 1.20 1.17 1.21 1.22 1.20 1.30 1.43 1.60 1.82 1.96 2.11 2.25 2.22 2.08 1.96 1.92 1.90 1.88 1.84 1.76 1.68
3.51 3.40 3.33 3.19 2.96 2.78 2.63 2.61 2.54 2.46 2.33 2.30 2.30 2.37 2.19 1.80 1.39 1.14 1.05 1.08 1.15 1.20 1.22 1.20 1.14 1.15 1.19 1.22 1.29 1.50 1.66 1.68 1.78 1.93 2.09 2.06 1.95 1.92 1.93 1.97 1.99 1.95 1.91
3.28 3.12 3.12 3.05 2.90 2.70 2.53 2.40 2.35 2.36 2.41 2.32 2.20 2.05 1.94 1.74 1.61 1.40 1.22 1.14 1.11 1.13 1.15 1.15 1.12 1.13 1.20 1.32 1.46 1.55 1.59 1.56 1.57 1.62 1.67 1.76 1.81 1.84 1.88 1.88 1.94 2.02 2.08
3.04 2.87 2.83 2.71 2.53 2.38 2.23 2.09 2.02 2.04 2.08 2.10 2.07 2.00 1.93 1.80 1.66 1.53 1.40 1.29 1.23 1.15 1.10 1.10 1.11 1.15 1.20 1.25 1.37 1.43 1.48 1.44 1.46 1.47 1.50 1.56 1.62 1.70 1.81 1.92 2.04 2.16 2.27
2.85 2.58 2.33 2.24 2.20 2.03 1.80 1.66 1.61 1.60 1.64 1.71 1.81 1.82 1.76 1.73 1.70 1.66 1.54 1.40 1.35 1.31 1.23 1.21 1.16 1.15 1.20 1.18 1.18 1.35 1.31 1.30 1.31 1.34 1.38 1.43 1.41 1.46 1.57 1.72 1.92 2.13 2.29
2.37 2.13 1.91 1.79 1.74 1.71 1.60 1.46 1.39 1.30 1.29 1.36 1.42 1.54 1.58 1.55 1.52 1.59 1.66 1.60 1.46 1.35 1.23 1.17 1.07 1.01 1.03 1.11 1.20 1.23 1.13 1.13 1.10 1.10 1.15 1.28 1.36 1.36 1.31 1.39 1.51 1.70 1.86
1.90 1.70 1.56 1.43 1.29 1.19 1.15 1.16 1.20 1.18 1.16 1.21 1.22 1.34 1.43 1.43 1.44 1.47 1.51 1.64 1.63 1.46 1.29 1.15 1.04 0.97 0.98 1.01 1.09 0.98 0.96 0.97 0.94 0.98 1.02 1.09 1.18 1.31 1.30 1.22 1.18 1.23 1.33
1.42 1.30 1.20 1.16 1.08 1.02 0.99 0.97 1.00 1.05 1.06 1.08 1.11 1.16 1.23 1.21 1.24 1.30 1.37 1.46 1.58 1.53 1.39 1.19 1.14 1.11 1.08 1.06 1.12 0.96 0.96 0.93 0.92 0.99 1.03 1.09 1.17 1.30 1.36 1.25 1.13 1.04 1.01
1.12 1.03 0.99 0.97 0.95 0.93 0.94 1.00 1.01 1.01 1.03 1.00 0.97 0.94 0.94 0.94 0.98 1.02 1.10 1.21 1.32 1.41 1.38 1.16 1.09 1.16 1.15 1.06 1.20 1.07 1.01 0.97 0.97 1.20 1.34 1.29 1.26 1.42 1.56 1.53 1.35 1.20 1.12
0.85 0.85 0.81 0.79 0.81 0.85 0.87 0.90 0.89 0.87 0.82 0.78 0.76 0.76 0.79 0.80 0.84 0.87 0.91 1.04 1.22 1.34 1.41 1.19 1.05 1.12 1.22 1.19 1.22 1.15 1.03 0.97 1.08 1.50 1.73 1.93 1.68 1.57 1.66 1.62 1.51 1.32 1.19
0.78 0.78 0.72 0.67 0.63 0.61 0.63 0.65 0.66 0.71 0.73 0.70 0.71 0.74 0.74 0.74 0.74 0.80 0.86 0.94 1.09 1.26 1.43 1.38 1.18 1.18 1.23 1.22 1.27 1.26 1.10 0.94 0.99 1.46 1.79 2.11 2.08 1.86 1.88 1.71 1.52 1.33 1.21
0.69 0.65 0.62 0.60 0.53 0.52 0.49 0.48 0.51 0.57 0.60 0.60 0.64 0.69 0.73 0.83 0.82 0.82 0.87 0.90 0.99 1.12 1.34 1.43 1.32 1.28 1.33 1.36 1.45 1.37 1.20 1.13 0.94 1.20 1.64 1.98 2.17 2.22 2.31 2.16 1.84 1.49 1.27
0.65 0.65 0.63 0.53 0.44 0.40 0.39 0.38 0.39 0.43 0.45 0.49 0.56 0.62 0.68 0.80 0.86 0.89 0.88 0.90 0.94 1.06 1.23 1.40 1.41 1.39 1.43 1.50 1.53 1.50 1.33 1.17 1.03 1.01 1.47 1.96 2.31 2.35 2.53 2.64 2.33 1.84 1.44
0.59 0.59 0.60 0.57 0.49 0.40 0.35 0.35 0.35 0.39 0.46 0.52 0.55 0.57 0.60 0.70 0.79 0.78 0.73 0.76 0.89 1.09 1.19 1.35 1.41 1.38 1.35 1.47 1.48 1.30 1.22 1.13 1.00 0.96 1.16 1.57 2.25 2.60 2.67 2.74 2.63 2.11 1.63
0.62 0.57 0.56 0.56 0.52 0.40 0.39 0.39 0.35 0.40 0.48 0.55 0.57 0.58 0.55 0.56 0.56 0.57 0.64 0.71 0.81 1.04 1.35 1.54 1.49 1.40 1.26 1.24 1.26 1.23 1.25 1.24 1.18 0.93 0.91 1.22 1.78 2.51 2.76 2.75 2.68 2.10 1.56
0.59 0.55 0.52 0.54 0.52 0.44 0.40 0.37 0.37 0.42 0.52 0.59 0.62 0.61 0.50 0.44 0.52 0.58 0.63 0.68 0.81 0.97 1.24 1.56 1.64 1.42 1.33 1.27 1.30 1.30 1.34 1.39 1.29 0.96 0.94 1.23 1.60 2.25 2.45 2.47 2.38 1.81 1.38
0.58 0.58 0.57 0.56 0.53 0.43 0.39 0.38 0.38 0.42 0.53 0.55 0.56 0.59 0.60 0.58 0.55 0.57 0.63 0.75 0.90 1.03 1.12 1.21 1.50 1.33 1.11 1.09 1.17 1.21 1.29 1.32 1.24 1.05 1.00 1.28 1.59 2.02 2.02 2.09 2.02 1.60 1.26
0.57 0.54 0.51 0.51 0.54 0.51 0.45 0.39 0.36 0.44 0.51 0.53 0.50 0.49 0.48 0.51 0.54 0.65 0.80 1.03 1.17 1.29 1.23 1.36 1.52 1.46 1.30 1.20 1.08 1.11 1.30 1.36 1.31 1.15 1.05 1.25 1.49 1.62 1.71 1.80 1.64 1.47 1.22
0.52 0.47 0.44 0.47 0.50 0.47 0.37 0.32 0.33 0.40 0.47 0.52 0.54 0.54 0.48 0.44 0.55 0.71 0.96 1.24 1.38 1.45 1.32 1.42 1.65 1.69 1.51 1.47 1.42 1.29 1.36 1.37 1.33 1.29 1.04 1.07 1.27 1.29 1.53 1.56 1.42 1.29 1.22

GEFSMA_prec_meanprecacc_204.txt.gz
Total_Precipitation_Accumulation
1.54 1.52 1.55 1.74 1.75 1.81 1.80 1.54 1.31 1.37 1.45 1.39 1.21 1.19 1.27 1.29 1.30 1.45 1.59 1.51 1.47 1.61 1.83 1.95 1.99 1.95 1.90 1.93 1.93 1.94 1.90 1.82 1.76 1.66 1.47 1.33 1.25 1.23 1.24 1.24 1.23 1.15 1.12
1.78 1.82 1.82 1.87 1.88 2.03 2.06 1.82 1.65 1.74 1.70 1.64 1.44 1.34 1.33 1.42 1.42 1.52 1.59 1.55 1.41 1.37 1.55 1.85 2.04 2.12 2.14 2.17 2.10 1.99 1.96 1.89 1.86 1.75 1.61 1.46 1.38 1.31 1.26 1.27 1.29 1.25 1.16
2.11 2.21 2.25 2.16 2.09 2.05 2.10 2.03 1.93 1.91 1.86 1.67 1.56 1.55 1.56 1.44 1.39 1.55 1.67 1.69 1.60 1.51 1.59 1.67 1.80 2.00 2.29 2.42 2.34 2.22 2.14 2.08 1.97 1.87 1.78 1.65 1.52 1.44 1.37 1.32 1.32 1.29 1.23
2.26 2.49 2.54 2.33 2.19 2.12 2.22 2.31 2.21 2.18 2.14 2.04 1.79 1.60 1.62 1.60 1.51 1.55 1.58 1.66 1.79 1.72 1.73 1.67 1.69 1.82 2.02 2.20 2.33 2.38 2.35 2.27 2.17 2.07 1.97 1.85 1.76 1.60 1.46 1.42 1.37 1.32 1.30
2.33 2.51 2.62 2.60 2.35 2.32 2.42 2.35 2.53 2.44 2.41 2.23 1.90 1.70 1.54 1.45 1.49 1.50 1.51 1.57 1.62 1.65 1.72 1.75 1.76 1.79 1.94 2.05 2.14 2.26 2.29 2.29 2.20 2.06 2.02 2.00 1.88 1.71 1.59 1.56 1.48 1.41 1.37
2.43 2.63 2.70 2.75 2.62 2.65 2.75 2.73 2.75 2.58 2.37 2.22 1.95 1.77 1.53 1.31 1.30 1.37 1.37 1.38 1.35 1.37 1.46 1.54 1.67 1.65 1.74 1.83 1.96 2.19 2.46 2.51 2.37 2.20 2.12 2.05 1.92 1.73 1.61 1.62 1.60 1.54 1.49
3.08 3.22 3.17 3.08 2.90 2.85 2.88 2.81 2.70 2.60 2.46 2.41 2.29 1.99 1.61 1.30 1.17 1.14 1.21 1.24 1.20 1.22 1.28 1.39 1.46 1.50 1.54 1.58 1.66 1.88 2.26 2.51 2.47 2.34 2.25 2.14 2.03 1.91 1.81 1.74 1.70 1.66 1.60
3.70 3.65 3.59 3.34 3.10 2.93 2.80 2.68 2.56 2.47 2.33 2.30 2.30 2.22 1.89 1.57 1.25 1.04 1.14 1.19 1.18 1.24 1.24 1.20 1.23 1.26 1.24 1.35 1.49 1.65 1.88 2.02 2.17 2.32 2.30 2.18 2.07 2.00 1.96 1.94 1.91 1.83 1.75
3.54 3.44 3.37 3.24 3.02 2.85 2.72 2.71 2.65 2.56 2.42 2.38 2.38 2.42 2.23 1.82 1.41 1.16 1.07 1.11 1.18 1.24 1.26 1.24 1.18 1.20 1.24 1.28 1.34 1.55 1.72 1.74 1.84 2.00 2.16 2.15 2.07 2.06 2.03 2.04 2.05 2.03 1.98
3.30 3.15 3.15 3.08 2.94 2.75 2.58 2.46 2.44 2.45 2.50 2.40 2.27 2.10 1.97 1.76 1.64 1.43 1.24 1.16 1.13 1.16 1.18 1.18 1.16 1.18 1.26 1.38 1.51 1.59 1.63 1.60 1.62 1.68 1.73 1.83 1.90 1.97 2.01 1.96 2.00 2.09 2.16
3.08 2.91 2.86 2.74 2.57 2.41 2.26 2.14 2.07 2.10 2.15 2.17 2.14 2.04 1.96 1.83 1.69 1.56 1.43 1.31 1.25 1.17 1.13 1.14 1.15 1.21 1.26 1.32 1.44 1.49 1.53 1.48 1.50 1.51 1.54 1.60 1.68 1.77 1.91 2.02 2.11 2.22 2.33
2.90 2.65 2.40 2.30 2.25 2.07 1.84 1.73 1.68 1.66 1.71 1.78 1.87 1.87 1.80 1.76 1.72 1.70 1.59 1.45 1.39 1.34 1.26 1.25 1.20 1.20 1.26 1.25 1.25 1.41 1.37 1.36 1.36 1.38 1.43 1.47 1.45 1.50 1.62 1.78 2.00 2.19 2.34
2.46 2.22 2.03 1.89 1.81 1.76 1.65 1.53 1.46 1.37 1.35 1.42 1.47 1.58 1.62 1.58 1.55 1.62 1.70 1.64 1.50 1.37 1.25 1.21 1.11 1.05 1.07 1.18 1.27 1.28 1.18 1.18 1.15 1.14 1.20 1.32 1.39 1.39 1.35 1.44 1.57 1.77 1.94
1.97 1.77 1.64 1.49 1.34 1.23 1.19 1.20 1.24 1.23 1.21 1.25 1.26 1.37 1.45 1.45 1.47 1.50 1.55 1.68 1.68 1.50 1.33 1.19 1.08 1.02 1.03 1.07 1.15 1.04 1.01 1.01 0.98 1.03 1.06 1.14 1.23 1.36 1.35 1.26 1.23 1.28 1.40
1.47 1.36 1.26 1.20 1.11 1.05 1.01 1.01 1.04 1.09 1.09 1.11 1.14 1.21 1.28 1.26 1.28 1.34 1.41 1.51 1.63 1.59 1.45 1.26 1.22 1.17 1.14 1.12 1.18 1.02 1.03 0.99 0.96 1.04 1.07 1.14 1.22 1.36 1.41 1.31 1.19 1.10 1.07
1.16 1.07 1.02 1.00 0.96 0.94 0.96 1.02 1.04 1.05 1.06 1.03 1.00 0.98 0.99 0.98 1.01 1.05 1.14 1.24 1.35 1.46 1.43 1.21 1.15 1.23 1.21 1.12 1.26 1.13 1.07 1.03 1.01 1.24 1.38 1.32 1.30 1.47 1.62 1.58 1.40 1.26 1.18
0.90 0.89 0.84 0.81 0.83 0.87 0.89 0.92 0.91 0.90 0.85 0.81 0.78 0.79 0.82 0.82 0.87 0.89 0.94 1.07 1.25 1.38 1.44 1.22 1.09 1.17 1.29 1.25 1.28 1.22 1.11 1.04 1.12 1.53 1.77 1.97 1.72 1.61 1.70 1.67 1.56 1.37 1.24
0.81 0.81 0.75 0.69 0.64 0.63 0.65 0.67 0.68 0.72 0.74 0.71 0.73 0.76 0.77 0.77 0.78 0.84 0.90 0.97 1.12 1.29 1.45 1.42 1.22 1.22 1.28 1.29 1.35 1.35 1.17 1.00 1.03 1.49 1.82 2.15 2.13 1.91 1.92 1.75 1.57 1.38 1.25
0.73 0.68 0.64 0.61 0.54 0.52 0.50 0.49 0.52 0.58 0.61 0.61 0.65 0.70 0.74 0.85 0.85 0.85 0.91 0.93 1.02 1.14 1.37 1.47 1.36 1.33 1.40 1.44 1.55 1.46 1.27 1.21 1.00 1.25 1.68 2.02 2.21 2.26 2.35 2.21 1.90 1.54 1.31
0.70 0.68 0.66 0.54 0.45 0.40 0.39 0.39 0.40 0.44 0.46 0.50 0.57 0.63 0.69 0.81 0.87 0.91 0.92 0.93 0.98 1.10 1.27 1.44 1.44 1.43 1.49 1.57 1.60 1.58 1.42 1.25 1.09 1.05 1.51 2.00 2.35 2.39 2.57 2.68 2.39 1.91 1.50
0.64 0.63 0.63 0.59 0.50 0.41 0.36 0.35 0.36 0.40 0.47 0.53 0.56 0.58 0.62 0.72 0.81 0.80 0.75 0.79 0.92 1.13 1.22 1.39 1.46 1.44 1.44 1.54 1.54 1.37 1.30 1.20 1.06 1.01 1.21 1.62 2.30 2.65 2.72 2.78 2.68 2.18 1.71
0.64 0.60 0.59 0.57 0.53 0.40 0.39 0.39 0.36 0.42 0.50 0.56 0.59 0.59 0.57 0.58 0.58 0.60 0.66 0.72 0.82 1.07 1.38 1.57 1.53 1.46 1.34 1.31 1.33 1.29 1.29 1.28 1.23 0.98 0.96 1.27 1.83 2.57 2.82 2.80 2.72 2.15 1.61
0.61 0.56 0.53 0.55 0.53 0.45 0.41 0.38 0.38 0.44 0.54 0.60 0.63 0.63 0.52 0.45 0.54 0.60 0.64 0.69 0.82 0.98 1.26 1.58 1.66 1.45 1.36 1.31 1.34 1.34 1.38 1.43 1.33 0.99 0.98 1.27 1.63 2.28 2.48 2.50 2.40 1.84 1.41
0.59 0.59 0.58 0.58 0.55 0.45 0.41 0.40 0.40 0.46 0.56 0.58 0.59 0.61 0.62 0.60 0.56 0.59 0.66 0.76 0.91 1.03 1.13 1.23 1.52 1.36 1.14 1.13 1.20 1.24 1.32 1.36 1.28 1.08 1.05 1.33 1.63 2.06 2.06 2.12 2.05 1.63 1.29
0.58 0.54 0.51 0.53 0.56 0.53 0.47 0.41 0.38 0.46 0.53 0.54 0.52 0.50 0.50 0.52 0.56 0.66 0.81 1.04 1.18 1.30 1.24 1.37 1.53 1.48 1.31 1.21 1.10 1.14 1.34 1.39 1.35 1.20 1.10 1.31 1.54 1.68 1.77 1.83 1.67 1.50 1.25
0.53 0.48 0.45 0.48 0.52 0.50 0.39 0.34 0.34 0.41 0.48 0.53 0.56 0.56 0.49 0.46 0.57 0.73 0.97 1.26 1.39 1.47 1.33 1.43 1.67 1.71 1.54 1.49 1.44 1.31 1.40 1.42 1.38 1.34 1.09 1.13 1.33 1.36 1.59 1.60 1.45 1.32 1.24

GEFSMA_prec_meanprecacc_210.txt.gz
Total_Precipitation_Accumulation
1.61 1.59 1.62 1.80 1.80 1.87 1.86 1.59 1.36 1.42 1.50 1.44 1.27 1.25 1.34 1.36 1.38 1.51 1.63 1.56 1.52 1.65 1.87 1.98 2.03 1.98 1.94 1.98 1.98 2.01 1.98 1.89 1.83 1.74 1.55 1.40 1.33 1.31 1.32 1.33 1.33 1.24 1.19
1.88 1.91 1.90 1.93 1.93 2.08 2.12 1.86 1.68 1.78 1.74 1.68 1.49 1.40 1.40 1.48 1.46 1.55 1.62 1.58 1.43 1.39 1.58 1.88 2.07 2.15 2.18 2.22 2.14 2.04 2.02 1.96 1.93 1.83 1.69 1.54 1.45 1.39 1.34 1.35 1.37 1.33 1.24
2.21 2.30 2.33 2.23 2.14 2.11 2.15 2.08 1.97 1.94 1.89 1.71 1.60 1.60 1.60 1.49 1.43 1.58 1.70 1.73 1.62 1.53 1.61 1.69 1.81 2.02 2.32 2.46 2.38 2.27 2.20 2.14 2.02 1.92 1.85 1.73 1.59 1.51 1.44 1.40 1.40 1.36 1.30
2.33 2.57 2.61 2.40 2.24 2.16 2.27 2.35 2.24 2.21 2.17 2.09 1.85 1.64 1.66 1.64 1.54 1.59 1.62 1.70 1.82 1.75 1.76 1.70 1.72 1.84 2.05 2.24 2.39 2.43 2.41 2.33 2.22 2.11 2.02 1.92 1.83 1.67 1.52 1.47 1.43 1.39 1.38
2.41 2.59 2.70 2.66 2.41 2.37 2.45 2.38 2.57 2.48 2.46 2.28 1.95 1.74 1.58 1.47 1.51 1.52 1.55 1.60 1.65 1.68 1.75 1.77 1.79 1.83 1.98 2.08 2.19 2.33 2.37 2.37 2.26 2.11 2.07 2.07 1.96 1.80 1.67 1.62 1.54 1.46 1.43
2.50 2.69 2.75 2.79 2.65 2.68 2.78 2.77 2.78 2.61 2.42 2.28 1.99 1.80 1.56 1.34 1.33 1.39 1.39 1.39 1.38 1.40 1.48 1.57 1.69 1.67 1.77 1.85 2.00 2.27 2.53 2.58 2.44 2.27 2.19 2.12 2.01 1.84 1.72 1.71 1.68 1.61 1.55
3.12 3.26 3.20 3.11 2.92 2.87 2.90 2.84 2.72 2.63 2.49 2.46 2.33 2.03 1.65 1.33 1.19 1.15 1.22 1.25 1.21 1.22 1.29 1.41 1.48 1.53 1.58 1.61 1.69 1.92 2.30 2.58 2.54 2.40 2.31 2.21 2.11 2.01 1.91 1.85 1.82 1.77 1.68
3.74 3.68 3.62 3.36 3.12 2.95 2.82 2.71 2.59 2.50 2.36 2.34 2.35 2.28 1.94 1.62 1.28 1.06 1.16 1.21 1.19 1.24 1.24 1.20 1.24 1.28 1.27 1.40 1.53 1.69 1.92 2.07 2.24 2.39 2.37 2.25 2.15 2.09 2.06 2.04 2.01 1.93 1.84
3.60 3.49 3.42 3.27 3.05 2.88 2.75 2.74 2.68 2.60 2.47 2.43 2.43 2.49 2.30 1.88 1.46 1.20 1.09 1.13 1.19 1.25 1.27 1.25 1.19 1.22 1.26 1.31 1.38 1.58 1.75 1.78 1.89 2.07 2.25 2.23 2.15 2.13 2.12 2.15 2.16 2.14 2.08
3.37 3.23 3.22 3.14 2.98 2.77 2.61 2.49 2.47 2.51 2.58 2.47 2.34 2.16 2.04 1.85 1.72 1.48 1.28 1.19 1.17 1.18 1.20 1.20 1.18 1.21 1.29 1.41 1.55 1.63 1.65 1.62 1.65 1.73 1.81 1.91 1.98 2.04 2.08 2.04 2.09 2.19 2.26
3.13 2.96 2.90 2.79 2.61 2.45 2.30 2.18 2.12 2.15 2.22 2.25 2.22 2.13 2.04 1.90 1.76 1.62 1.48 1.37 1.30 1.20 1.16 1.16 1.17 1.23 1.30 1.36 1.49 1.53 1.56 1.50 1.52 1.55 1.59 1.68 1.75 1.84 1.98 2.09 2.18 2.28 2.40
2.94 2.69 2.44 2.34 2.29 2.11 1.88 1.77 1.72 1.72 1.77 1.86 1.95 1.95 1.87 1.83 1.78 1.77 1.65 1.51 1.45 1.39 1.29 1.27 1.22 1.22 1.30 1.29 1.29 1.45 1.41 1.38 1.38 1.41 1.47 1.52 1.51 1.55 1.68 1.85 2.08 2.28 2.42
2.49 2.27 2.07 1.94 1.86 1.80 1.68 1.56 1.49 1.41 1.40 1.48 1.54 1.66 1.69 1.63 1.60 1.68 1.77 1.71 1.55 1.42 1.29 1.23 1.13 1.07 1.10 1.22 1.34 1.35 1.24 1.21 1.17 1.16 1.22 1.36 1.44 1.44 1.40 1.50 1.64 1.85 2.03
2.01 1.81 1.67 1.53 1.37 1.26 1.22 1.23 1.27 1.26 1.24 1.28 1.30 1.42 1.51 1.52 1.53 1.55 1.60 1.74 1.73 1.53 1.37 1.23 1.11 1.04 1.06 1.11 1.23 1.13 1.10 1.07 1.02 1.05 1.08 1.17 1.26 1.39 1.37 1.29 1.26 1.32 1.45
1.51 1.39 1.29 1.24 1.14 1.07 1.04 1.04 1.07 1.12 1.13 1.14 1.17 1.24 1.32 1.31 1.34 1.41 1.47 1.58 1.70 1.65 1.50 1.29 1.26 1.21 1.17 1.16 1.25 1.12 1.14 1.10 1.06 1.12 1.13 1.17 1.24 1.39 1.43 1.33 1.22 1.13 1.10
1.21 1.12 1.06 1.03 0.98 0.96 0.97 1.05 1.06 1.07 1.08 1.05 1.03 1.02 1.03 1.02 1.06 1.12 1.22 1.33 1.45 1.54 1.49 1.24 1.19 1.27 1.25 1.14 1.31 1.21 1.17 1.12 1.09 1.30 1.43 1.35 1.31 1.49 1.64 1.61 1.43 1.29 1.22
0.97 0.95 0.90 0.86 0.86 0.89 0.90 0.94 0.93 0.91 0.86 0.82 0.81 0.82 0.86 0.89 0.94 0.96 1.00 1.14 1.34 1.47 1.50 1.26 1.13 1.21 1.33 1.29 1.33 1.29 1.19 1.14 1.22 1.61 1.81 2.00 1.74 1.62 1.72 1.69 1.58 1.40 1.28
0.87 0.86 0.80 0.72 0.67 0.66 0.67 0.69 0.70 0.74 0.76 0.73 0.76 0.80 0.81 0.82 0.83 0.90 0.96 1.03 1.18 1.36 1.51 1.46 1.26 1.28 1.33 1.34 1.39 1.40 1.24 1.09 1.14 1.59 1.89 2.20 2.15 1.92 1.93 1.77 1.59 1.40 1.28
0.79 0.74 0.71 0.68 0.59 0.56 0.54 0.53 0.55 0.61 0.64 0.64 0.69 0.74 0.78 0.89 0.88 0.89 0.95 0.97 1.07 1.19 1.43 1.52 1.40 1.38 1.45 1.48 1.59 1.50 1.34 1.29 1.08 1.34 1.76 2.09 2.26 2.29 2.37 2.23 1.92 1.56 1.34
0.74 0.73 0.72 0.62 0.52 0.45 0.44 0.43 0.44 0.47 0.49 0.53 0.61 0.67 0.71 0.83 0.90 0.95 0.95 0.97 1.01 1.14 1.32 1.49 1.49 1.47 1.54 1.61 1.64 1.62 1.48 1.32 1.19 1.16 1.61 2.06 2.40 2.43 2.59 2.70 2.41 1.93 1.52
0.67 0.68 0.69 0.64 0.55 0.45 0.38 0.37 0.38 0.42 0.50 0.55 0.58 0.60 0.64 0.74 0.82 0.82 0.77 0.81 0.96 1.16 1.27 1.44 1.50 1.48 1.49 1.60 1.59 1.42 1.35 1.27 1.14 1.10 1.31 1.70 2.37 2.70 2.76 2.81 2.70 2.19 1.72
0.66 0.63 0.63 0.61 0.55 0.42 0.40 0.40 0.38 0.44 0.51 0.57 0.60 0.61 0.59 0.60 0.59 0.62 0.68 0.73 0.84 1.09 1.42 1.62 1.58 1.51 1.39 1.37 1.40 1.35 1.37 1.36 1.31 1.05 1.04 1.34 1.90 2.63 2.87 2.84 2.75 2.17 1.63
0.63 0.59 0.56 0.59 0.56 0.47 0.43 0.40 0.40 0.46 0.56 0.62 0.65 0.65 0.54 0.47 0.56 0.63 0.68 0.72 0.84 1.00 1.29 1.62 1.71 1.50 1.42 1.37 1.40 1.39 1.44 1.50 1.39 1.07 1.07 1.35 1.71 2.35 2.53 2.53 2.43 1.86 1.43
0.60 0.60 0.60 0.61 0.60 0.48 0.44 0.42 0.41 0.47 0.58 0.60 0.61 0.65 0.67 0.64 0.60 0.64 0.70 0.79 0.94 1.07 1.17 1.27 1.57 1.41 1.19 1.18 1.25 1.29 1.37 1.40 1.32 1.14 1.12 1.42 1.71 2.14 2.13 2.17 2.09 1.65 1.31
0.60 0.57 0.55 0.56 0.60 0.57 0.50 0.43 0.40 0.48 0.56 0.57 0.55 0.55 0.55 0.58 0.62 0.71 0.85 1.07 1.21 1.33 1.27 1.40 1.56 1.50 1.34 1.23 1.13 1.18 1.39 1.44 1.40 1.25 1.17 1.40 1.62 1.76 1.85 1.90 1.71 1.53 1.27
0.57 0.52 0.50 0.52 0.56 0.55 0.42 0.36 0.36 0.43 0.51 0.56 0.60 0.60 0.53 0.50 0.61 0.76 1.00 1.29 1.43 1.49 1.36 1.46 1.70 1.74 1.56 1.51 1.46 1.35 1.46 1.50 1.46 1.40 1.17 1.22 1.41 1.45 1.68 1.67 1.51 1.38 1.30

GEFSMA_prec_meanprecacc_216.txt.gz
Total_Precipitation_Accumulation
1.64 1.63 1.69 1.87 1.86 1.91 1.89 1.62 1.38 1.43 1.51 1.44 1.27 1.26 1.35 1.38 1.41 1.55 1.67 1.59 1.55 1.69 1.90 2.01 2.07 2.02 1.97 2.01 2.02 2.04 2.02 1.95 1.89 1.80 1.60 1.46 1.38 1.36 1.38 1.39 1.38 1.29 1.23
1.94 1.98 1.98 2.00 1.98 2.13 2.15 1.89 1.71 1.80 1.75 1.69 1.49 1.41 1.41 1.49 1.50 1.60 1.66 1.61 1.45 1.41 1.60 1.91 2.11 2.19 2.22 2.26 2.18 2.08 2.06 2.00 1.97 1.87 1.74 1.58 1.49 1.44 1.39 1.40 1.43 1.38 1.29
2.27 2.37 2.39 2.28 2.19 2.15 2.20 2.12 2.00 1.97 1.91 1.72 1.62 1.61 1.61 1.50 1.44 1.60 1.72 1.75 1.64 1.55 1.63 1.72 1.86 2.06 2.36 2.50 2.42 2.31 2.23 2.17 2.06 1.96 1.89 1.77 1.63 1.55 1.48 1.44 1.45 1.42 1.35
2.36 2.60 2.65 2.44 2.29 2.20 2.30 2.38 2.26 2.22 2.19 2.11 1.86 1.65 1.66 1.64 1.55 1.59 1.63 1.71 1.84 1.76 1.78 1.73 1.75 1.88 2.09 2.28 2.43 2.47 2.44 2.36 2.25 2.15 2.07 1.96 1.87 1.70 1.56 1.51 1.48 1.45 1.43
2.44 2.63 2.74 2.70 2.44 2.40 2.47 2.40 2.59 2.49 2.47 2.29 1.96 1.75 1.58 1.48 1.52 1.53 1.56 1.62 1.66 1.69 1.76 1.79 1.82 1.87 2.02 2.14 2.26 2.39 2.42 2.40 2.30 2.15 2.11 2.11 2.00 1.83 1.71 1.67 1.60 1.53 1.50
2.55 2.75 2.80 2.84 2.69 2.70 2.81 2.79 2.80 2.63 2.43 2.30 2.00 1.81 1.57 1.35 1.33 1.40 1.41 1.41 1.38 1.41 1.51 1.58 1.70 1.69 1.80 1.90 2.10 2.35 2.59 2.63 2.49 2.31 2.23 2.16 2.05 1.87 1.76 1.76 1.72 1.66 1.61
3.18 3.31 3.23 3.15 2.96 2.90 2.92 2.85 2.73 2.64 2.50 2.47 2.34 2.04 1.66 1.34 1.20 1.16 1.24 1.27 1.23 1.24 1.31 1.42 1.49 1.53 1.59 1.63 1.71 1.95 2.34 2.63 2.59 2.45 2.36 2.26 2.16 2.04 1.95 1.88 1.86 1.81 1.72
3.79 3.74 3.66 3.41 3.15 2.98 2.84 2.72 2.61 2.51 2.37 2.35 2.36 2.29 1.95 1.64 1.31 1.09 1.19 1.23 1.21 1.26 1.25 1.22 1.25 1.29 1.28 1.40 1.54 1.70 1.95 2.11 2.28 2.43 2.43 2.30 2.20 2.14 2.11 2.08 2.05 1.99 1.91
3.64 3.55 3.48 3.33 3.12 2.93 2.78 2.76 2.71 2.63 2.49 2.45 2.44 2.50 2.31 1.90 1.50 1.24 1.14 1.16 1.21 1.26 1.28 1.26 1.20 1.23 1.27 1.32 1.39 1.59 1.77 1.80 1.92 2.11 2.30 2.29 2.21 2.20 2.18 2.20 2.21 2.18 2.14
3.39 3.27 3.28 3.21 3.04 2.84 2.66 2.52 2.49 2.54 2.60 2.48 2.36 2.19 2.07 1.87 1.75 1.52 1.32 1.22 1.19 1.19 1.21 1.21 1.20 1.23 1.31 1.42 1.56 1.64 1.66 1.63 1.66 1.76 1.85 1.95 2.03 2.10 2.15 2.11 2.15 2.24 2.30
3.14 2.98 2.93 2.83 2.65 2.49 2.35 2.22 2.14 2.17 2.24 2.27 2.25 2.18 2.09 1.94 1.79 1.65 1.51 1.39 1.32 1.22 1.17 1.18 1.20 1.26 1.32 1.37 1.49 1.54 1.57 1.51 1.53 1.56 1.61 1.71 1.79 1.89 2.04 2.15 2.24 2.34 2.45
2.96 2.70 2.46 2.37 2.31 2.13 1.91 1.83 1.77 1.76 1.81 1.90 2.01 2.01 1.92 1.86 1.81 1.80 1.68 1.54 1.48 1.41 1.31 1.28 1.24 1.25 1.31 1.30 1.30 1.47 1.43 1.39 1.40 1.42 1.48 1.54 1.56 1.61 1.73 1.91 2.14 2.33 2.48
2.51 2.28 2.08 1.96 1.88 1.82 1.70 1.60 1.54 1.44 1.43 1.51 1.57 1.70 1.72 1.66 1.62 1.70 1.79 1.74 1.59 1.45 1.32 1.25 1.14 1.09 1.12 1.24 1.35 1.37 1.26 1.22 1.18 1.17 1.23 1.38 1.46 1.48 1.45 1.55 1.69 1.91 2.09
2.04 1.83 1.70 1.55 1.40 1.29 1.24 1.25 1.30 1.29 1.27 1.31 1.32 1.44 1.53 1.53 1.55 1.57 1.62 1.77 1.76 1.56 1.39 1.26 1.14 1.06 1.07 1.13 1.24 1.14 1.12 1.09 1.03 1.06 1.09 1.18 1.28 1.42 1.41 1.34 1.31 1.38 1.51
1.55 1.43 1.33 1.28 1.19 1.10 1.06 1.05 1.08 1.15 1.16 1.16 1.18 1.25 1.32 1.32 1.35 1.42 1.50 1.62 1.74 1.68 1.52 1.31 1.29 1.24 1.20 1.18 1.27 1.13 1.15 1.12 1.07 1.14 1.15 1.19 1.26 1.41 1.46 1.36 1.25 1.16 1.13
1.27 1.17 1.10 1.08 1.05 1.01 1.01 1.07 1.08 1.09 1.10 1.07 1.04 1.03 1.04 1.03 1.08 1.13 1.25 1.38 1.50 1.58 1.52 1.26 1.21 1.29 1.27 1.16 1.33 1.22 1.18 1.15 1.11 1.32 1.47 1.41 1.39 1.56 1.69 1.64 1.45 1.31 1.24
1.05 1.01 0.94 0.90 0.92 0.96 0.95 0.97 0.96 0.93 0.88 0.84 0.83 0.84 0.88 0.91 0.97 0.98 1.02 1.17 1.37 1.52 1.56 1.30 1.15 1.22 1.35 1.31 1.35 1.30 1.21 1.16 1.24 1.62 1.83 2.03 1.79 1.69 1.79 1.75 1.63 1.43 1.29
0.94 0.93 0.86 0.77 0.73 0.73 0.73 0.73 0.74 0.77 0.78 0.75 0.78 0.82 0.83 0.85 0.85 0.91 0.98 1.05 1.20 1.38 1.54 1.48 1.28 1.29 1.36 1.37 1.42 1.42 1.26 1.11 1.17 1.62 1.91 2.23 2.20 1.96 1.97 1.81 1.63 1.42 1.29
0.84 0.78 0.76 0.73 0.64 0.62 0.59 0.57 0.59 0.65 0.67 0.67 0.71 0.77 0.81 0.91 0.90 0.91 0.97 0.99 1.08 1.20 1.45 1.53 1.41 1.39 1.46 1.51 1.62 1.52 1.36 1.31 1.10 1.36 1.78 2.13 2.30 2.34 2.41 2.26 1.94 1.58 1.34
0.78 0.76 0.75 0.66 0.57 0.51 0.49 0.48 0.49 0.53 0.55 0.59 0.67 0.73 0.76 0.87 0.94 0.98 0.98 0.99 1.03 1.16 1.33 1.51 1.50 1.49 1.55 1.63 1.68 1.65 1.50 1.35 1.22 1.20 1.65 2.11 2.45 2.50 2.66 2.74 2.44 1.95 1.54
0.70 0.71 0.72 0.66 0.58 0.49 0.43 0.44 0.45 0.49 0.57 0.62 0.64 0.65 0.68 0.78 0.86 0.85 0.80 0.83 0.98 1.19 1.29 1.46 1.53 1.51 1.51 1.62 1.61 1.44 1.38 1.31 1.18 1.13 1.35 1.74 2.42 2.75 2.81 2.86 2.74 2.23 1.75
0.71 0.67 0.66 0.64 0.59 0.47 0.47 0.47 0.45 0.50 0.57 0.61 0.62 0.63 0.61 0.61 0.62 0.64 0.70 0.75 0.86 1.11 1.44 1.64 1.61 1.54 1.42 1.40 1.43 1.38 1.40 1.42 1.36 1.09 1.07 1.37 1.94 2.69 2.94 2.89 2.79 2.20 1.66
0.68 0.62 0.60 0.63 0.61 0.52 0.49 0.45 0.45 0.50 0.59 0.64 0.67 0.67 0.56 0.49 0.58 0.64 0.69 0.74 0.87 1.03 1.31 1.65 1.73 1.52 1.44 1.40 1.43 1.43 1.48 1.55 1.43 1.11 1.11 1.38 1.74 2.40 2.60 2.59 2.48 1.90 1.47
0.64 0.64 0.64 0.65 0.64 0.52 0.47 0.45 0.44 0.50 0.60 0.61 0.62 0.66 0.68 0.64 0.61 0.65 0.71 0.81 0.95 1.09 1.19 1.29 1.59 1.42 1.20 1.20 1.28 1.33 1.42 1.46 1.37 1.19 1.18 1.46 1.74 2.18 2.19 2.23 2.15 1.70 1.36
0.63 0.60 0.58 0.60 0.64 0.60 0.52 0.45 0.41 0.49 0.56 0.57 0.55 0.55 0.56 0.58 0.63 0.72 0.87 1.09 1.22 1.34 1.28 1.41 1.57 1.52 1.36 1.26 1.16 1.22 1.42 1.48 1.44 1.28 1.22 1.44 1.66 1.79 1.90 1.96 1.76 1.59 1.32
0.61 0.57 0.53 0.55 0.59 0.57 0.44 0.36 0.36 0.43 0.51 0.56 0.60 0.60 0.54 0.51 0.62 0.77 1.01 1.30 1.44 1.51 1.38 1.48 1.72 1.77 1.59 1.55 1.50 1.39 1.50 1.54 1.49 1.44 1.21 1.28 1.47 1.50 1.73 1.71 1.55 1.43 1.35

GEFSMA_prec_meanprecacc_222.txt.gz
Total_Precipitation_Accumulation
1.66 1.65 1.70 1.88 1.88 1.94 1.93 1.66 1.41 1.47 1.55 1.48 1.29 1.27 1.36 1.39 1.42 1.55 1.69 1.63 1.59 1.74 1.97 2.10 2.16 2.08 2.03 2.07 2.07 2.09 2.06 2.00 1.96 1.86 1.66 1.51 1.43 1.41 1.43 1.46 1.46 1.36 1.30
1.98 2.00 2.00 2.02 2.00 2.15 2.18 1.92 1.74 1.83 1.79 1.72 1.52 1.43 1.42 1.50 1.51 1.61 1.69 1.65 1.48 1.44 1.65 1.98 2.20 2.28 2.30 2.32 2.24 2.13 2.11 2.05 2.03 1.94 1.80 1.64 1.55 1.48 1.43 1.44 1.48 1.46 1.37
2.32 2.40 2.41 2.30 2.21 2.18 2.24 2.16 2.04 2.00 1.95 1.76 1.66 1.65 1.63 1.50 1.45 1.61 1.73 1.76 1.65 1.56 1.65 1.76 1.92 2.14 2.45 2.58 2.49 2.36 2.28 2.22 2.11 2.02 1.95 1.83 1.69 1.59 1.51 1.48 1.48 1.47 1.42
2.40 2.63 2.67 2.46 2.31 2.24 2.34 2.43 2.30 2.25 2.22 2.15 1.92 1.70 1.69 1.65 1.56 1.60 1.64 1.72 1.84 1.76 1.79 1.76 1.79 1.94 2.18 2.38 2.52 2.56 2.51 2.41 2.31 2.21 2.13 2.02 1.93 1.75 1.61 1.56 1.52 1.49 1.48
2.48 2.66 2.77 2.74 2.48 2.45 2.52 2.44 2.62 2.51 2.48 2.31 1.99 1.79 1.61 1.49 1.53 1.54 1.57 1.62 1.66 1.69 1.77 1.82 1.85 1.91 2.08 2.26 2.37 2.49 2.51 2.48 2.36 2.21 2.17 2.17 2.06 1.89 1.76 1.72 1.65 1.57 1.54
2.60 2.79 2.84 2.88 2.74 2.74 2.84 2.82 2.82 2.64 2.44 2.31 2.00 1.81 1.57 1.35 1.33 1.40 1.41 1.41 1.39 1.42 1.51 1.60 1.73 1.72 1.84 1.98 2.23 2.46 2.69 2.74 2.59 2.39 2.29 2.21 2.10 1.92 1.81 1.81 1.77 1.71 1.65
3.23 3.36 3.28 3.19 3.00 2.94 2.96 2.88 2.75 2.65 2.52 2.48 2.35 2.04 1.66 1.34 1.20 1.17 1.24 1.27 1.24 1.25 1.33 1.44 1.52 1.56 1.62 1.66 1.77 2.04 2.44 2.75 2.72 2.56 2.44 2.31 2.20 2.09 1.99 1.94 1.92 1.86 1.76
3.85 3.79 3.70 3.44 3.19 3.02 2.88 2.76 2.64 2.53 2.39 2.37 2.37 2.29 1.95 1.65 1.32 1.10 1.20 1.25 1.24 1.28 1.27 1.24 1.28 1.31 1.30 1.42 1.56 1.73 2.00 2.17 2.36 2.54 2.52 2.39 2.26 2.19 2.16 2.12 2.09 2.03 1.95
3.71 3.61 3.53 3.37 3.15 2.97 2.82 2.81 2.75 2.67 2.52 2.46 2.46 2.51 2.32 1.90 1.50 1.26 1.17 1.20 1.25 1.29 1.30 1.28 1.21 1.24 1.28 1.33 1.40 1.60 1.79 1.83 1.95 2.15 2.35 2.36 2.29 2.28 2.24 2.25 2.26 2.23 2.19
3.46 3.33 3.33 3.25 3.07 2.86 2.70 2.58 2.55 2.59 2.64 2.51 2.38 2.20 2.07 1.88 1.75 1.53 1.35 1.26 1.22 1.21 1.22 1.22 1.21 1.23 1.32 1.43 1.57 1.65 1.67 1.65 1.68 1.78 1.88 1.99 2.06 2.15 2.22 2.19 2.22 2.31 2.37
3.20 3.02 2.97 2.87 2.68 2.51 2.36 2.23 2.17 2.22 2.30 2.32 2.29 2.19 2.10 1.95 1.80 1.66 1.52 1.41 1.35 1.24 1.19 1.19 1.21 1.27 1.33 1.38 1.50 1.55 1.58 1.52 1.54 1.58 1.63 1.73 1.82 1.91 2.06 2.20 2.30 2.42 2.55
3.00 2.74 2.50 2.40 2.34 2.16 1.93 1.84 1.79 1.78 1.84 1.94 2.05 2.05 1.95 1.88 1.82 1.80 1.69 1.55 1.50 1.43 1.32 1.29 1.25 1.25 1.32 1.31 1.31 1.48 1.44 1.40 1.40 1.43 1.49 1.56 1.57 1.63 1.75 1.93 2.17 2.38 2.54
2.57 2.33 2.12 1.99 1.91 1.85 1.74 1.63 1.58 1.47 1.45 1.54 1.60 1.73 1.75 1.70 1.64 1.72 1.81 1.76 1.60 1.46 1.33 1.26 1.14 1.09 1.13 1.25 1.36 1.38 1.27 1.23 1.18 1.18 1.24 1.39 1.47 1.50 1.47 1.57 1.71 1.93 2.13
2.09 1.88 1.74 1.59 1.44 1.32 1.27 1.28 1.33 1.33 1.31 1.34 1.35 1.47 1.56 1.57 1.58 1.59 1.64 1.80 1.79 1.56 1.40 1.26 1.14 1.06 1.08 1.14 1.26 1.15 1.12 1.09 1.04 1.07 1.10 1.19 1.29 1.43 1.42 1.35 1.32 1.39 1.53
1.59 1.46 1.36 1.31 1.23 1.15 1.11 1.09 1.11 1.19 1.20 1.19 1.21 1.27 1.35 1.35 1.38 1.44 1.52 1.64 1.77 1.69 1.52 1.31 1.29 1.24 1.20 1.18 1.27 1.13 1.16 1.12 1.08 1.15 1.16 1.20 1.27 1.42 1.47 1.37 1.25 1.17 1.14
1.30 1.19 1.13 1.11 1.09 1.05 1.04 1.11 1.11 1.12 1.15 1.10 1.07 1.05 1.06 1.05 1.10 1.15 1.26 1.39 1.52 1.60 1.53 1.27 1.22 1.29 1.27 1.17 1.33 1.23 1.20 1.17 1.12 1.33 1.48 1.43 1.40 1.57 1.70 1.65 1.47 1.33 1.26
1.08 1.03 0.96 0.93 0.95 0.98 0.98 1.00 0.98 0.95 0.91 0.87 0.85 0.87 0.90 0.93 0.98 1.00 1.03 1.18 1.39 1.53 1.57 1.30 1.16 1.23 1.35 1.31 1.35 1.32 1.22 1.18 1.25 1.64 1.85 2.05 1.80 1.70 1.80 1.77 1.65 1.45 1.31
0.96 0.94 0.87 0.79 0.75 0.74 0.75 0.76 0.77 0.81 0.82 0.78 0.81 0.85 0.86 0.87 0.88 0.94 0.99 1.07 1.22 1.40 1.56 1.50 1.29 1.30 1.36 1.38 1.43 1.43 1.27 1.12 1.18 1.64 1.94 2.26 2.22 1.98 1.98 1.82 1.65 1.45 1.32
0.85 0.79 0.77 0.75 0.67 0.64 0.61 0.60 0.63 0.69 0.72 0.71 0.75 0.80 0.84 0.95 0.93 0.94 1.00 1.03 1.12 1.25 1.49 1.57 1.44 1.41 1.48 1.52 1.63 1.53 1.37 1.32 1.11 1.38 1.81 2.16 2.34 2.36 2.42 2.27 1.95 1.59 1.36
0.81 0.78 0.79 0.70 0.61 0.53 0.51 0.52 0.53 0.57 0.60 0.64 0.72 0.78 0.83 0.95 1.03 1.05 1.04 1.05 1.09 1.21 1.38 1.55 1.53 1.50 1.56 1.64 1.69 1.66 1.51 1.35 1.23 1.21 1.68 2.15 2.49 2.52 2.68 2.76 2.45 1.97 1.56
0.74 0.75 0.76 0.71 0.63 0.53 0.47 0.49 0.50 0.53 0.61 0.67 0.69 0.71 0.75 0.85 0.94 0.92 0.86 0.88 1.02 1.22 1.32 1.49 1.54 1.52 1.52 1.63 1.62 1.45 1.39 1.32 1.19 1.14 1.36 1.77 2.46 2.79 2.84 2.90 2.78 2.27 1.79
0.73 0.70 0.69 0.68 0.62 0.50 0.50 0.51 0.49 0.54 0.61 0.65 0.67 0.66 0.63 0.63 0.63 0.66 0.72 0.77 0.89 1.15 1.47 1.67 1.63 1.56 1.44 1.41 1.44 1.40 1.42 1.44 1.38 1.10 1.08 1.39 1.98 2.74 2.99 2.94 2.85 2.25 1.70
0.70 0.64 0.62 0.65 0.63 0.55 0.51 0.47 0.47 0.52 0.61 0.66 0.69 0.69 0.56 0.49 0.58 0.65 0.71 0.75 0.88 1.05 1.33 1.67 1.75 1.53 1.46 1.42 1.45 1.45 1.50 1.57 1.46 1.14 1.14 1.40 1.77 2.45 2.67 2.67 2.56 1.95 1.53
0.66 0.65 0.65 0.65 0.65 0.54 0.50 0.46 0.46 0.52 0.61 0.63 0.64 0.67 0.69 0.65 0.62 0.67 0.74 0.84 0.97 1.11 1.21 1.31 1.61 1.44 1.22 1.21 1.30 1.35 1.44 1.48 1.39 1.21 1.21 1.50 1.77 2.23 2.25 2.31 2.22 1.76 1.40
0.65 0.61 0.60 0.61 0.65 0.62 0.54 0.47 0.43 0.50 0.57 0.58 0.56 0.56 0.57 0.60 0.65 0.77 0.91 1.12 1.24 1.36 1.30 1.43 1.59 1.53 1.37 1.27 1.17 1.23 1.45 1.50 1.46 1.30 1.25 1.48 1.70 1.83 1.95 2.02 1.83 1.64 1.37
0.63 0.58 0.54 0.57 0.60 0.58 0.45 0.38 0.37 0.45 0.53 0.57 0.60 0.61 0.55 0.51 0.62 0.78 1.02 1.31 1.45 1.52 1.38 1.48 1.73 1.78 1.60 1.56 1.51 1.40 1.51 1.56 1.52 1.48 1.25 1.32 1.52 1.57 1.80 1.77 1.62 1.49 1.40

GEFSMA_prec_meanprecacc_228.txt.gz
Total_Precipitation_Accumulation
1.71 1.68 1.73 1.92 1.92 1.99 1.98 1.71 1.45 1.52 1.60 1.52 1.33 1.30 1.40 1.43 1.45 1.60 1.75 1.69 1.64 1.78 2.02 2.16 2.25 2.21 2.14 2.14 2.12 2.14 2.12 2.07 2.01 1.92 1.72 1.57 1.48 1.46 1.47 1.50 1.51 1.43 1.36
2.04 2.05 2.04 2.06 2.05 2.19 2.22 1.97 1.79 1.89 1.85 1.78 1.58 1.49 1.48 1.55 1.54 1.65 1.74 1.70 1.52 1.47 1.69 2.04 2.26 2.36 2.40 2.43 2.31 2.19 2.16 2.10 2.08 1.99 1.85 1.70 1.60 1.53 1.47 1.48 1.53 1.52 1.43
2.39 2.46 2.46 2.34 2.24 2.22 2.27 2.20 2.08 2.05 2.00 1.82 1.73 1.72 1.69 1.56 1.50 1.64 1.77 1.79 1.68 1.58 1.67 1.78 1.95 2.18 2.51 2.65 2.56 2.43 2.34 2.27 2.16 2.07 1.99 1.88 1.74 1.64 1.56 1.51 1.51 1.51 1.46
2.49 2.70 2.72 2.51 2.35 2.27 2.37 2.47 2.35 2.29 2.26 2.20 1.96 1.74 1.72 1.69 1.59 1.62 1.67 1.74 1.86 1.78 1.81 1.77 1.81 1.97 2.22 2.44 2.59 2.63 2.57 2.46 2.36 2.26 2.18 2.07 1.98 1.81 1.66 1.60 1.57 1.52 1.51
2.60 2.75 2.83 2.78 2.52 2.49 2.55 2.48 2.66 2.55 2.53 2.36 2.02 1.84 1.67 1.55 1.57 1.56 1.59 1.63 1.68 1.71 1.80 1.84 1.86 1.93 2.12 2.31 2.44 2.57 2.60 2.57 2.44 2.27 2.23 2.24 2.12 1.94 1.81 1.77 1.69 1.61 1.57
2.68 2.86 2.90 2.94 2.79 2.79 2.88 2.85 2.87 2.68 2.48 2.35 2.03 1.83 1.61 1.41 1.39 1.44 1.44 1.43 1.41 1.44 1.54 1.62 1.75 1.75 1.88 2.03 2.32 2.57 2.81 2.87 2.71 2.51 2.40 2.30 2.17 1.97 1.85 1.85 1.82 1.74 1.68
3.31 3.43 3.33 3.24 3.07 3.01 3.01 2.92 2.79 2.69 2.56 2.51 2.37 2.06 1.68 1.36 1.23 1.20 1.27 1.30 1.26 1.27 1.34 1.45 1.53 1.60 1.68 1.72 1.85 2.14 2.55 2.85 2.83 2.70 2.59 2.45 2.30 2.16 2.05 2.00 1.97 1.92 1.82
3.96 3.90 3.80 3.52 3.27 3.09 2.94 2.81 2.69 2.57 2.42 2.40 2.40 2.32 1.97 1.66 1.33 1.11 1.22 1.26 1.25 1.30 1.29 1.26 1.29 1.33 1.33 1.45 1.59 1.82 2.08 2.24 2.44 2.64 2.61 2.48 2.38 2.30 2.25 2.20 2.17 2.10 2.02
3.81 3.71 3.63 3.46 3.23 3.04 2.88 2.85 2.80 2.72 2.57 2.51 2.50 2.54 2.34 1.91 1.51 1.27 1.18 1.21 1.27 1.33 1.33 1.29 1.22 1.25 1.29 1.35 1.42 1.62 1.81 1.85 1.99 2.22 2.43 2.42 2.36 2.38 2.37 2.37 2.36 2.32 2.27
3.55 3.43 3.43 3.35 3.15 2.93 2.76 2.62 2.59 2.65 2.71 2.57 2.42 2.23 2.09 1.89 1.76 1.54 1.36 1.28 1.24 1.24 1.25 1.24 1.22 1.25 1.33 1.45 1.59 1.66 1.68 1.65 1.69 1.80 1.92 2.05 2.12 2.21 2.30 2.29 2.33 2.41 2.46
3.29 3.12 3.07 2.96 2.75 2.56 2.41 2.28 2.21 2.27 2.35 2.38 2.35 2.23 2.11 1.97 1.81 1.67 1.54 1.42 1.36 1.26 1.21 1.20 1.23 1.28 1.34 1.39 1.51 1.56 1.59 1.53 1.54 1.58 1.64 1.75 1.85 1.94 2.10 2.24 2.36 2.49 2.63
3.07 2.81 2.57 2.46 2.39 2.20 1.96 1.87 1.82 1.81 1.88 1.99 2.11 2.11 1.99 1.92 1.85 1.82 1.71 1.56 1.52 1.45 1.34 1.31 1.26 1.27 1.33 1.32 1.32 1.48 1.44 1.41 1.41 1.44 1.50 1.57 1.59 1.65 1.77 1.96 2.20 2.41 2.59
2.64 2.37 2.16 2.03 1.94 1.88 1.76 1.66 1.61 1.50 1.48 1.57 1.64 1.78 1.80 1.74 1.67 1.74 1.83 1.78 1.63 1.48 1.35 1.27 1.15 1.10 1.13 1.25 1.36 1.38 1.27 1.23 1.19 1.19 1.25 1.40 1.50 1.52 1.50 1.60 1.75 1.97 2.17
2.16 1.92 1.78 1.62 1.46 1.34 1.30 1.31 1.36 1.35 1.33 1.36 1.37 1.51 1.61 1.63 1.63 1.63 1.67 1.83 1.81 1.59 1.42 1.27 1.15 1.07 1.08 1.14 1.26 1.15 1.13 1.09 1.04 1.07 1.11 1.19 1.30 1.45 1.44 1.37 1.35 1.42 1.55
1.65 1.51 1.40 1.35 1.26 1.18 1.14 1.12 1.14 1.21 1.22 1.22 1.23 1.30 1.38 1.40 1.42 1.48 1.55 1.67 1.80 1.71 1.54 1.33 1.31 1.25 1.21 1.19 1.28 1.14 1.17 1.13 1.09 1.15 1.17 1.21 1.29 1.43 1.49 1.38 1.27 1.19 1.16
1.35 1.23 1.16 1.14 1.12 1.08 1.07 1.14 1.14 1.15 1.17 1.13 1.10 1.08 1.08 1.08 1.12 1.18 1.29 1.41 1.54 1.62 1.55 1.28 1.24 1.31 1.28 1.17 1.34 1.24 1.21 1.18 1.13 1.33 1.49 1.43 1.41 1.59 1.71 1.67 1.48 1.34 1.28
1.13 1.07 1.00 0.97 0.98 1.01 1.00 1.02 1.00 0.98 0.94 0.90 0.89 0.90 0.93 0.96 1.01 1.02 1.06 1.20 1.42 1.56 1.59 1.32 1.18 1.24 1.37 1.33 1.38 1.34 1.24 1.20 1.27 1.64 1.85 2.05 1.81 1.71 1.81 1.78 1.67 1.47 1.33
1.00 0.98 0.90 0.83 0.79 0.77 0.77 0.78 0.80 0.83 0.85 0.81 0.84 0.88 0.89 0.90 0.91 0.96 1.03 1.11 1.26 1.45 1.61 1.54 1.32 1.32 1.38 1.41 1.46 1.46 1.28 1.14 1.19 1.64 1.94 2.27 2.23 1.99 2.00 1.84 1.67 1.47 1.34
0.88 0.82 0.79 0.78 0.70 0.68 0.65 0.63 0.66 0.72 0.76 0.74 0.77 0.82 0.87 0.98 0.96 0.98 1.05 1.08 1.18 1.30 1.54 1.62 1.47 1.44 1.51 1.55 1.66 1.55 1.39 1.35 1.13 1.39 1.82 2.17 2.34 2.38 2.45 2.30 1.98 1.61 1.38
0.84 0.81 0.81 0.73 0.65 0.58 0.56 0.55 0.56 0.60 0.63 0.68 0.75 0.81 0.86 0.99 1.07 1.10 1.09 1.10 1.13 1.26 1.42 1.59 1.56 1.54 1.59 1.67 1.72 1.69 1.55 1.39 1.25 1.23 1.69 2.16 2.51 2.55 2.71 2.79 2.48 1.99 1.58
0.77 0.77 0.78 0.74 0.67 0.59 0.53 0.53 0.53 0.56 0.65 0.71 0.72 0.74 0.78 0.88 0.98 0.97 0.90 0.92 1.05 1.26 1.35 1.52 1.59 1.55 1.55 1.66 1.66 1.50 1.43 1.35 1.22 1.17 1.39 1.80 2.50 2.82 2.88 2.93 2.81 2.29 1.81
0.76 0.72 0.71 0.71 0.66 0.53 0.54 0.53 0.50 0.56 0.62 0.67 0.69 0.68 0.66 0.65 0.65 0.68 0.74 0.79 0.91 1.17 1.49 1.69 1.67 1.60 1.47 1.45 1.49 1.45 1.46 1.47 1.41 1.14 1.12 1.42 2.01 2.78 3.03 2.98 2.88 2.28 1.73
0.72 0.66 0.64 0.66 0.64 0.56 0.53 0.48 0.48 0.53 0.63 0.68 0.71 0.71 0.58 0.50 0.59 0.66 0.72 0.76 0.89 1.06 1.35 1.69 1.78 1.57 1.50 1.46 1.51 1.50 1.55 1.61 1.49 1.17 1.17 1.43 1.80 2.48 2.70 2.70 2.58 1.98 1.55
0.69 0.67 0.67 0.67 0.65 0.54 0.51 0.47 0.47 0.52 0.62 0.64 0.65 0.68 0.70 0.66 0.63 0.69 0.76 0.85 0.99 1.13 1.24 1.34 1.63 1.46 1.25 1.24 1.33 1.39 1.49 1.52 1.43 1.25 1.25 1.53 1.80 2.26 2.28 2.36 2.26 1.79 1.44
0.67 0.63 0.61 0.62 0.67 0.63 0.56 0.49 0.44 0.51 0.58 0.59 0.57 0.58 0.58 0.61 0.67 0.80 0.93 1.14 1.26 1.38 1.32 1.45 1.61 1.56 1.39 1.29 1.19 1.26 1.48 1.54 1.49 1.33 1.29 1.52 1.74 1.87 1.99 2.06 1.87 1.68 1.41
0.64 0.59 0.56 0.58 0.62 0.60 0.47 0.40 0.39 0.46 0.54 0.59 0.62 0.62 0.55 0.52 0.63 0.78 1.03 1.33 1.46 1.53 1.39 1.49 1.74 1.79 1.61 1.57 1.53 1.43 1.55 1.61 1.56 1.51 1.28 1.36 1.56 1.61 1.85 1.82 1.66 1.54 1.45

GEFSMA_prec_meanprecacc_234.txt.gz
Total_Precipitation_Accumulation
1.81 1.77 1.80 1.99 1.99 2.05 2.04 1.77 1.52 1.60 1.67 1.59 1.40 1.35 1.44 1.46 1.49 1.64 1.80 1.73 1.67 1.80 2.04 2.19 2.29 2.24 2.17 2.17 2.15 2.16 2.15 2.12 2.07 1.96 1.76 1.59 1.51 1.49 1.51 1.54 1.56 1.49 1.42
2.10 2.12 2.10 2.12 2.11 2.25 2.28 2.03 1.85 1.96 1.92 1.85 1.64 1.54 1.52 1.59 1.58 1.68 1.79 1.75 1.54 1.49 1.70 2.06 2.30 2.40 2.44 2.47 2.35 2.22 2.19 2.14 2.13 2.03 1.89 1.73 1.64 1.57 1.52 1.53 1.58 1.58 1.49
2.46 2.52 2.53 2.41 2.30 2.29 2.34 2.27 2.16 2.12 2.07 1.89 1.80 1.77 1.73 1.60 1.54 1.69 1.81 1.83 1.72 1.61 1.68 1.80 1.96 2.20 2.54 2.68 2.60 2.47 2.37 2.31 2.20 2.11 2.04 1.93 1.78 1.68 1.60 1.56 1.57 1.56 1.53
2.60 2.80 2.81 2.58 2.42 2.33 2.44 2.53 2.42 2.38 2.35 2.28 2.04 1.80 1.78 1.74 1.64 1.67 1.70 1.78 1.90 1.81 1.84 1.78 1.82 1.98 2.23 2.46 2.62 2.67 2.61 2.50 2.40 2.30 2.22 2.11 2.02 1.85 1.70 1.65 1.62 1.58 1.56
2.71 2.86 2.95 2.89 2.61 2.57 2.65 2.54 2.72 2.63 2.62 2.45 2.10 1.92 1.75 1.63 1.65 1.62 1.65 1.67 1.71 1.75 1.83 1.86 1.88 1.95 2.13 2.33 2.46 2.61 2.63 2.60 2.48 2.32 2.28 2.29 2.17 1.99 1.86 1.81 1.74 1.66 1.62
2.79 2.97 3.01 3.06 2.91 2.91 3.01 2.94 2.96 2.77 2.57 2.43 2.08 1.90 1.69 1.48 1.45 1.49 1.48 1.47 1.44 1.47 1.57 1.66 1.78 1.77 1.89 2.05 2.33 2.59 2.85 2.90 2.75 2.56 2.45 2.37 2.24 2.04 1.91 1.91 1.86 1.78 1.72
3.40 3.54 3.43 3.34 3.17 3.12 3.12 3.01 2.88 2.77 2.64 2.60 2.46 2.15 1.75 1.41 1.27 1.23 1.30 1.33 1.29 1.30 1.37 1.48 1.56 1.62 1.70 1.74 1.87 2.17 2.59 2.89 2.88 2.75 2.65 2.52 2.38 2.23 2.11 2.05 2.02 1.97 1.86
4.03 3.99 3.89 3.61 3.35 3.19 3.03 2.91 2.79 2.66 2.50 2.49 2.49 2.40 2.03 1.70 1.37 1.13 1.24 1.29 1.28 1.32 1.32 1.28 1.32 1.36 1.37 1.48 1.63 1.85 2.14 2.33 2.53 2.72 2.68 2.53 2.42 2.36 2.31 2.25 2.21 2.16 2.08
3.88 3.79 3.71 3.53 3.31 3.12 2.95 2.93 2.89 2.80 2.64 2.58 2.57 2.61 2.41 1.96 1.54 1.29 1.20 1.23 1.30 1.35 1.35 1.32 1.25 1.26 1.31 1.39 1.46 1.65 1.85 1.93 2.08 2.29 2.47 2.45 2.38 2.41 2.41 2.43 2.42 2.38 2.33
3.62 3.48 3.50 3.42 3.23 2.99 2.82 2.68 2.65 2.71 2.77 2.62 2.49 2.30 2.17 1.94 1.80 1.57 1.38 1.30 1.26 1.27 1.26 1.25 1.24 1.28 1.35 1.47 1.61 1.67 1.70 1.67 1.71 1.83 1.94 2.07 2.15 2.23 2.33 2.31 2.37 2.46 2.52
3.36 3.17 3.12 3.01 2.82 2.63 2.47 2.34 2.28 2.33 2.41 2.42 2.40 2.28 2.17 2.02 1.85 1.71 1.57 1.45 1.39 1.29 1.24 1.24 1.25 1.30 1.36 1.41 1.52 1.56 1.59 1.53 1.55 1.60 1.65 1.77 1.87 1.97 2.12 2.26 2.38 2.52 2.67
3.12 2.86 2.61 2.50 2.43 2.24 2.02 1.94 1.89 1.88 1.94 2.04 2.16 2.15 2.04 1.96 1.89 1.86 1.74 1.60 1.55 1.47 1.37 1.33 1.28 1.27 1.34 1.33 1.32 1.49 1.44 1.41 1.41 1.44 1.50 1.57 1.60 1.67 1.80 1.98 2.22 2.44 2.62
2.68 2.43 2.22 2.08 1.98 1.93 1.81 1.71 1.66 1.55 1.53 1.62 1.69 1.83 1.86 1.78 1.71 1.77 1.87 1.82 1.66 1.50 1.37 1.28 1.16 1.10 1.14 1.26 1.37 1.39 1.27 1.23 1.19 1.19 1.25 1.40 1.50 1.53 1.51 1.62 1.77 1.99 2.20
2.23 1.99 1.86 1.71 1.54 1.41 1.34 1.36 1.40 1.39 1.38 1.42 1.42 1.57 1.68 1.69 1.68 1.67 1.70 1.86 1.85 1.61 1.45 1.29 1.15 1.07 1.09 1.15 1.27 1.17 1.13 1.10 1.04 1.07 1.11 1.20 1.30 1.46 1.45 1.38 1.36 1.44 1.58
1.71 1.59 1.48 1.45 1.36 1.28 1.21 1.18 1.19 1.26 1.27 1.28 1.30 1.36 1.45 1.46 1.48 1.53 1.59 1.71 1.84 1.75 1.57 1.35 1.32 1.26 1.22 1.21 1.30 1.15 1.18 1.14 1.10 1.15 1.17 1.21 1.29 1.44 1.50 1.39 1.28 1.20 1.18
1.40 1.28 1.23 1.21 1.19 1.18 1.16 1.20 1.19 1.20 1.23 1.19 1.16 1.14 1.14 1.14 1.20 1.25 1.34 1.46 1.59 1.67 1.58 1.30 1.25 1.32 1.31 1.20 1.37 1.26 1.22 1.20 1.14 1.34 1.49 1.44 1.41 1.59 1.73 1.68 1.50 1.36 1.29
1.17 1.11 1.05 1.02 1.03 1.06 1.06 1.07 1.05 1.02 0.99 0.95 0.94 0.95 0.97 1.02 1.09 1.10 1.13 1.27 1.48 1.63 1.65 1.34 1.19 1.26 1.41 1.39 1.41 1.37 1.28 1.24 1.30 1.68 1.88 2.07 1.82 1.73 1.83 1.80 1.69 1.49 1.35
1.05 1.02 0.93 0.87 0.84 0.84 0.83 0.83 0.85 0.88 0.90 0.86 0.89 0.93 0.94 0.96 0.99 1.05 1.10 1.17 1.32 1.52 1.68 1.59 1.35 1.35 1.42 1.45 1.51 1.50 1.31 1.17 1.23 1.68 1.97 2.28 2.25 2.01 2.02 1.85 1.68 1.49 1.36
0.94 0.88 0.85 0.83 0.76 0.73 0.69 0.67 0.70 0.77 0.80 0.79 0.83 0.89 0.93 1.05 1.04 1.05 1.11 1.14 1.24 1.37 1.62 1.69 1.52 1.48 1.55 1.62 1.72 1.60 1.43 1.39 1.16 1.41 1.84 2.18 2.36 2.39 2.46 2.31 1.99 1.63 1.40
0.89 0.86 0.85 0.77 0.69 0.63 0.62 0.61 0.63 0.67 0.71 0.75 0.82 0.88 0.92 1.04 1.12 1.14 1.12 1.14 1.18 1.31 1.49 1.65 1.62 1.59 1.66 1.75 1.80 1.75 1.60 1.45 1.30 1.25 1.71 2.19 2.52 2.56 2.72 2.81 2.50 2.01 1.60
0.81 0.81 0.82 0.77 0.70 0.61 0.57 0.57 0.58 0.61 0.70 0.75 0.76 0.77 0.81 0.91 1.00 0.99 0.92 0.94 1.08 1.30 1.40 1.57 1.63 1.61 1.61 1.74 1.73 1.56 1.50 1.42 1.28 1.22 1.44 1.84 2.54 2.85 2.90 2.95 2.83 2.31 1.82
0.80 0.77 0.75 0.73 0.68 0.56 0.57 0.58 0.55 0.60 0.65 0.69 0.71 0.71 0.68 0.67 0.66 0.69 0.75 0.80 0.92 1.19 1.52 1.73 1.70 1.64 1.53 1.52 1.56 1.52 1.52 1.53 1.46 1.18 1.16 1.45 2.05 2.82 3.07 3.01 2.91 2.30 1.75
0.77 0.71 0.68 0.69 0.67 0.60 0.57 0.51 0.50 0.55 0.65 0.71 0.75 0.75 0.60 0.51 0.60 0.67 0.73 0.77 0.90 1.07 1.36 1.71 1.82 1.61 1.55 1.52 1.57 1.57 1.62 1.68 1.55 1.23 1.24 1.48 1.85 2.53 2.75 2.75 2.62 2.00 1.57
0.74 0.72 0.71 0.70 0.70 0.59 0.54 0.49 0.49 0.54 0.65 0.67 0.68 0.71 0.73 0.68 0.64 0.71 0.77 0.86 1.00 1.15 1.26 1.35 1.66 1.49 1.28 1.29 1.39 1.44 1.54 1.57 1.47 1.30 1.31 1.58 1.84 2.30 2.32 2.40 2.30 1.82 1.45
0.73 0.68 0.66 0.67 0.73 0.69 0.59 0.51 0.46 0.54 0.62 0.62 0.59 0.59 0.59 0.62 0.68 0.80 0.95 1.15 1.28 1.40 1.33 1.46 1.63 1.57 1.41 1.31 1.22 1.29 1.52 1.58 1.53 1.38 1.34 1.58 1.78 1.90 2.02 2.10 1.91 1.71 1.44
0.69 0.64 0.61 0.64 0.68 0.65 0.51 0.43 0.41 0.48 0.57 0.60 0.63 0.63 0.56 0.53 0.64 0.79 1.05 1.35 1.49 1.55 1.41 1.51 1.76 1.80 1.63 1.60 1.55 1.46 1.59 1.65 1.61 1.56 1.33 1.40 1.60 1.65 1.88 1.87 1.71 1.59 1.49